,

(GMT )
Al Udeid

Weather History for KQIR - April, 2013

Change the Weather History Date:

Saturday, April 6, 2013

  Actual Average Record
Temperature  
Mean Temperature 78 °F -  
Max Temperature 84 °F - - ()
Min Temperature 73 °F - - ()
Cooling Degree Days 14    
Growing Degree Days 28 (Base 50)    
Moisture  
Dew Point 54 °F    
Average Humidity 47    
Maximum Humidity 78    
Minimum Humidity 18    
Precipitation  
Precipitation 0.00 in - - ()
Sea Level Pressure  
Sea Level Pressure 29.63 in    
Wind  
Wind Speed 18 mph ()    
Max Wind Speed 34 mph    
Max Gust Speed 40 mph    
Visibility 2.7 miles    
Events      
Averages and records for this station are not official NWS values.
T = Trace of Precipitation, MM = Missing Value Source: Averaged Metar Reports

Daily Weather History Graph

Daily Weather History Graph

Search for Another Location

Airport or City:

Trip Planner

Search our weather history database for the weather conditions in past years. The results will help you decide how hot, cold, wet, or windy it might be!

Date:

Astronomy

Apr. 06, 2013 Rise Set
Actual Time 5:21 AM +03 5:53 PM +03
Civil Twilight 4:58 AM +03 6:16 PM +03
Nautical Twilight 4:31 AM +03 6:43 PM +03
Astronomical Twilight 4:03 AM +03 7:11 PM +03
Moon 2:26 AM +03 (4/6) 2:18 PM +03 (4/6)
Length of Visible Light 13h 18m
Length of Day
12h 32m
Waning Crescent, 17% of the Moon is Illuminated
Apr 6
Waning Crescent
Apr 10
New
Apr 18
First Quarter
Apr 25
Full
May 2
Last Quarter

Hourly Weather History & Observations

Time (+03) Temp. Heat Index Dew Point Humidity Pressure Visibility Wind Dir Wind Speed Gust Speed Precip Events Conditions
12:55 AM 78.1 °F - 67.8 °F 71% 29.57 in 3.7 mi East 10.4 mph - N/A   Haze
1:55 AM 77.5 °F - 67.8 °F 72% 29.55 in 3.7 mi Variable 3.5 mph - N/A   Haze
2:55 AM 75.6 °F - 66.2 °F 73% 29.55 in 3.7 mi West 11.5 mph - N/A   Haze
3:24 AM 75.2 °F - 66.2 °F 73% 29.56 in - WNW 16.1 mph - N/A   Overcast
4:08 AM 75.2 °F - 68.0 °F 78% 29.57 in 1.7 mi NNW 21.9 mph 29.9 mph N/A   Widespread Dust
4:30 AM 75.2 °F - 66.2 °F 73% 29.58 in 1.0 mi NNW 23.0 mph - N/A   Widespread Dust
4:55 AM 74.7 °F - 64.8 °F 71% 29.58 in 0.7 mi NNW 26.5 mph 31.1 mph N/A   Widespread Dust
5:44 AM 73.4 °F - 66.2 °F 78% 29.60 in 0.7 mi NNW 21.9 mph - N/A   Widespread Dust
5:50 AM 73.4 °F - 66.2 °F 78% 29.60 in 0.6 mi NNW 24.2 mph - N/A   Widespread Dust
5:55 AM 74.1 °F - 65.8 °F 75% 29.61 in 0.6 mi NW 21.9 mph - N/A   Widespread Dust
6:55 AM 75.2 °F - 63.3 °F 66% 29.62 in 0.7 mi NNW 24.2 mph 32.2 mph N/A   Widespread Dust
7:20 AM 77.0 °F - 62.6 °F 61% 29.64 in 1.0 mi NW 25.3 mph 31.1 mph N/A   Widespread Dust
7:55 AM 78.4 °F - 59.5 °F 52% 29.64 in 1.0 mi NNW 26.5 mph 33.4 mph N/A   Haze
8:30 AM 78.8 °F - 60.8 °F 54% 29.64 in 1.0 mi NNW 28.8 mph 35.7 mph N/A   Widespread Dust
8:32 AM 78.8 °F - 60.8 °F 54% 29.64 in 1.5 mi NNW 28.8 mph 35.7 mph N/A   Haze
8:45 AM 78.8 °F - 59.0 °F 51% 29.64 in 1.0 mi NNW 31.1 mph 36.8 mph N/A   Haze
8:52 AM 78.8 °F - 59.0 °F 51% 29.65 in 1.0 mi NNW 31.1 mph 36.8 mph N/A   Widespread Dust
8:58 AM 78.8 °F - 57.2 °F 47% 29.65 in 1.0 mi NW 29.9 mph 34.5 mph N/A   Widespread Dust
9:00 AM 78.8 °F - 57.2 °F 47% 29.64 in 1.0 mi NW 29.9 mph 34.5 mph N/A   Widespread Dust
9:47 AM 80.6 °F 80.5 °F 55.4 °F 42% 29.65 in 1.0 mi NNW 26.5 mph 38.0 mph N/A   Widespread Dust
9:55 AM 81.0 °F 80.5 °F 54.1 °F 39% 29.65 in 0.7 mi NW 31.1 mph 38.0 mph N/A   Widespread Dust
10:01 AM 80.6 °F - 51.8 °F 37% 29.65 in 0.7 mi NNW 32.2 mph 40.3 mph N/A   Widespread Dust
10:55 AM 82.4 °F - 46.8 °F 29% 29.64 in 0.7 mi NNW 34.5 mph 38.0 mph N/A   Widespread Dust
11:55 AM 83.7 °F - 40.5 °F 22% 29.62 in 0.7 mi NNW 31.1 mph 40.3 mph N/A   Widespread Dust
12:55 PM 84.4 °F - 35.8 °F 18% 29.61 in 1.6 mi NW 29.9 mph 39.1 mph N/A   Widespread Dust
1:55 PM 83.1 °F - 38.7 °F 21% 29.60 in 3.7 mi NNW 29.9 mph 38.0 mph N/A   Widespread Dust
2:55 PM 82.8 °F - 41.9 °F 24% 29.60 in 6.2 mi NW 23.0 mph 32.2 mph N/A   Partly Cloudy
3:55 PM 81.7 °F - 38.8 °F 22% 29.60 in 6.2 mi NW 23.0 mph 29.9 mph N/A   Partly Cloudy
4:55 PM 80.1 °F - 39.7 °F 24% 29.62 in 6.2 mi NNW 19.6 mph - N/A   Partly Cloudy
5:55 PM 77.7 °F - 41.5 °F 27% 29.63 in 6.2 mi North 16.1 mph - N/A   Clear
6:55 PM 75.6 °F - 44.2 °F 33% 29.67 in 6.2 mi NNW 10.4 mph - N/A   Clear
7:55 PM 74.7 °F - 46.9 °F 37% 29.69 in 6.2 mi NNW 10.4 mph - N/A   Clear
8:55 PM 74.1 °F - 46.0 °F 37% 29.70 in 6.2 mi NNW 10.4 mph - N/A   Clear
9:55 PM 73.6 °F - 48.9 °F 42% 29.70 in 6.2 mi WNW 6.9 mph - N/A   Clear
10:55 PM 73.8 °F - 48.9 °F 41% 29.69 in 6.2 mi WNW 13.8 mph - N/A   Clear
10:58 PM 73.4 °F - 48.2 °F 41% 29.69 in 5.6 mi WNW 16.1 mph - N/A   Haze
11:05 PM 73.4 °F - 46.4 °F 38% 29.69 in - NW 18.4 mph - N/A   Haze
11:07 PM 73.4 °F - 44.6 °F 36% 29.69 in - NW 19.6 mph - N/A   Haze
11:08 PM 73.4 °F - 44.6 °F 36% 29.69 in 2.5 mi NW 19.6 mph - N/A   Haze
11:13 PM 73.4 °F - 44.6 °F 36% 29.69 in - NW 19.6 mph - N/A   Haze
11:55 PM 73.9 °F - 41.9 °F 32% 29.68 in - NW 15.0 mph - N/A   Haze